This is the latest recevied weather packets stored in our database for station/object F4ETJ-1. If no packets are shown the sender has not sent any weather packets the latest 10 day(s).
| Time | Temp. | Humidity | Pressure | Rain* | Wind** | Luminosity | Snow |
|---|---|---|---|---|---|---|---|
| 1777809185 | 20° C | 72% | 1010.1 hPa | 0 mm | - | - | - |
| 1777808825 | 20.56° C | 74% | 1010.2 hPa | 0 mm | - | - | - |
| 1777808465 | 20° C | 72% | 1010.3 hPa | 0 mm | - | - | - |
| 1777808104 | 20° C | 72% | 1010.3 hPa | 0 mm | - | - | - |
| 1777807744 | 20° C | 74% | 1010.3 hPa | 0 mm | - | - | - |
| 1777807384 | 19.44° C | 73% | 1010.5 hPa | 0 mm | - | - | - |
| 1777807024 | 19.44° C | 75% | 1010.5 hPa | 0 mm | - | - | - |
| 1777806663 | 19.44° C | 77% | 1010.6 hPa | 0 mm | - | - | - |
| 1777806303 | 18.89° C | 81% | 1010.6 hPa | 0 mm | - | - | - |
| 1777805942 | 18.33° C | 82% | 1010.6 hPa | 0 mm | - | - | - |
| 1777805582 | 18.33° C | 84% | 1010.7 hPa | 0 mm | - | - | - |
| 1777805222 | 18.33° C | 86% | 1010.7 hPa | 0 mm | - | - | - |
| 1777804861 | 18.33° C | 85% | 1010.8 hPa | 0 mm | - | - | - |
| 1777804501 | 18.33° C | 83% | 1010.8 hPa | 0 mm | - | - | - |
| 1777804141 | 18.33° C | 82% | 1010.8 hPa | 0 mm | - | - | - |
| 1777803780 | 18.33° C | 81% | 1010.9 hPa | 0 mm | - | - | - |
| 1777803420 | 18.33° C | 83% | 1010.9 hPa | 0 mm | - | - | - |
| 1777803060 | 18.33° C | 84% | 1010.9 hPa | 0 mm | - | - | - |
| 1777802699 | 17.78° C | 84% | 1010.9 hPa | 0 mm | - | - | - |
| 1777802339 | 17.78° C | 85% | 1010.8 hPa | 0 mm | - | - | - |
| 1777801979 | 17.22° C | 87% | 1010.8 hPa | 0 mm | - | - | - |
| 1777801618 | 17.22° C | 87% | 1010.8 hPa | 0 mm | - | - | - |
| 1777801258 | 16.67° C | 89% | 1010.8 hPa | 0 mm | - | - | - |
| 1777800897 | 16.67° C | 90% | 1010.8 hPa | 0 mm | - | - | - |
| 1777800537 | 16.11° C | 91% | 1010.8 hPa | 0 mm | - | - | - |
* Rain latest hour (hover to see other rain measurements)
** Current wind speed in m/s (hover to see current wind gust speed)